星链-5992 (STARLINK-5992 )

导读 | 豆包AI

STARLINK-5992是美国SpaceX公司星链星座的一员,于2023年4月27日发射入轨,属于第二代星链组网卫星。它运行在近地轨道,配备相控阵天线与氪离子推进系统,支持高速卫星互联网接入,可为偏远区域提供低延迟宽带服务,是全球数千颗星链卫星中负责覆盖扩容的现役组网卫星,目前保持正常在轨运行。

基本信息
目录编号:
56328
目录名称:
STARLINK-5992
国际标识:
2023-058M
轨道中心:
EARTH
卫星名称:
星链-5992
卫星全名:
星链-5992 (STARLINK-5992 )
卫星状态:
在轨 (已飞行1099 天)
发射日期:
2023-04-27 UTC
国别 :
美国 (US)
星等 :
--
轨道信息
数据来源 国际轨道数据 AOE轨道数据
星历时间 2026-04-30T07:28:25+0800
8小时前
查看轨道信息
2026-04-27T12:00:00+0800
3天前
查看轨道信息
半长轴 6927.686km 6927.65km
偏心率 0.0002248 0.0001437
轨道倾角 97.555° 97.569°
近地点辐角 100.754° 82.232°
升交点赤经 121.731° 118.980°
平近点角 259.394° 168.762°
近地点 547.991km 548.517km
远地点 551.107km 550.509km
周期 95.641分钟 95.640分钟
每日圈数 15.056377 15.056495
详细信息
固有亮度:
5
最大亮度:
2.5
卫星平台:
Starlink v1.5
覆盖范围:
全球
运营商:
太空探索技术公司
运营商所在国:
美国
制造商(研发单位):
太空探索技术公司
制造商所在国:
美国
使用方式:
暂无
卫星简介
星链(Starlink)计划是由太空探索技术公司(SpaceX)提出的一个巨型低轨卫星互联网星座项目,计划在2019年至2024年间在太空搭建由约1.2万颗卫星组成的“星链”网络,其中1584颗将部署在地球上空550千米处的近地轨道,并从2020年开始工作。该卫星仍在工作。
2D轨道图
3D轨道图
轨道高度分析图
轨道倾角分析图
轨道综合分析图
查看轨道综合分析图